Change the Weather History Date:

Saturday, August 9, 2014

  Actual Average Record
Temperature  
Mean Temperature 70 °F -  
Max Temperature 80 °F 76 °F 89 °F (2005)
Min Temperature 60 °F 56 °F 53 °F (1996)
Cooling Degree Days 5    
Growing Degree Days 20 (Base 50)    
Moisture  
Dew Point 61 °F    
Average Humidity 73    
Maximum Humidity 94    
Minimum Humidity 48    
Precipitation  
Precipitation 0.00 in - - ()
Sea Level Pressure  
Sea Level Pressure 30.08 in    
Wind  
Wind Speed 6 mph (SE)    
Max Wind Speed 14 mph    
Max Gust Speed 20 mph    
Visibility 10 miles    
Events Thunderstorm    
Averages and records for this station are not official NWS values.
T = Trace of Precipitation, MM = Missing Value Source: NWS Daily Summary

Daily Weather History Graph

Daily Weather History Graph

Search for Another Location

Airport or City:

Trip Planner

Search our weather history database for the weather conditions in past years. The results will help you decide how hot, cold, wet, or windy it might be!

Date:

Astronomy

Aug. 09, 2014 Rise Set
Actual Time 6:17 AM CDT 8:32 PM CDT
Civil Twilight 5:46 AM CDT 9:03 PM CDT
Nautical Twilight 5:06 AM CDT 9:42 PM CDT
Astronomical Twilight 4:23 AM CDT 10:26 PM CDT
Moon 7:33 PM CDT (8/9) 4:59 AM CDT (8/9)
Length of Visible Light 15h 17m
Length of Day
14h 14m
Waxing Gibbous, 98% of the Moon is Illuminated
Aug 9
Waxing Gibbous
Aug 10
Full
Aug 17
Last Quarter
Aug 25
New
Sep 2
First Quarter

Hourly Weather History & Observations

Time (CDT) Temp. Heat Index Dew Point Humidity Pressure Visibility Wind Dir Wind Speed Gust Speed Precip Events Conditions
12:14 AM 62.6 °F - 59.0 °F 88% 30.07 in 10.0 mi SE 3.5 mph - N/A   Clear
12:34 AM 62.6 °F - 59.0 °F 88% 30.07 in 10.0 mi ESE 4.6 mph - N/A   Clear
12:53 AM 60.8 °F - 59.0 °F 94% 30.07 in 10.0 mi ESE 5.8 mph - N/A   Clear
1:14 AM 62.6 °F - 59.0 °F 88% 30.06 in 10.0 mi ESE 4.6 mph - N/A   Mostly Cloudy
1:34 AM 64.4 °F - 60.8 °F 88% 30.07 in 10.0 mi ESE 5.8 mph - N/A   Overcast
1:53 AM 64.4 °F - 59.0 °F 83% 30.06 in 10.0 mi ESE 5.8 mph - N/A   Overcast
2:14 AM 64.4 °F - 60.8 °F 88% 30.06 in 10.0 mi SE 4.6 mph - N/A   Overcast
2:33 AM 64.4 °F - 60.8 °F 88% 30.05 in 10.0 mi ESE 5.8 mph - N/A   Mostly Cloudy
2:54 AM 64.4 °F - 59.0 °F 83% 30.05 in 10.0 mi SE 6.9 mph - N/A   Mostly Cloudy
3:14 AM 66.2 °F - 59.0 °F 78% 30.06 in 10.0 mi SE 6.9 mph - N/A   Overcast
3:33 AM 66.2 °F - 59.0 °F 78% 30.06 in 10.0 mi SE 6.9 mph - N/A   Mostly Cloudy
3:54 AM 68.0 °F - 59.0 °F 73% 30.07 in 10.0 mi SSE 6.9 mph - N/A   Mostly Cloudy
4:14 AM 66.2 °F - 59.0 °F 78% 30.07 in 10.0 mi SE 5.8 mph - N/A   Scattered Clouds
4:34 AM 66.2 °F - 59.0 °F 78% 30.07 in 10.0 mi SE 8.1 mph - N/A   Clear
4:54 AM 64.4 °F - 59.0 °F 83% 30.07 in 10.0 mi ESE 6.9 mph - N/A   Clear
5:14 AM 64.4 °F - 59.0 °F 83% 30.07 in 10.0 mi ESE 5.8 mph - N/A   Mostly Cloudy
5:34 AM 62.6 °F - 59.0 °F 88% 30.08 in 10.0 mi ESE 3.5 mph - N/A   Scattered Clouds
5:54 AM 62.6 °F - 59.0 °F 88% 30.08 in 10.0 mi ESE 5.8 mph - N/A   Clear
6:14 AM 62.6 °F - 59.0 °F 88% 30.09 in 10.0 mi Calm Calm - N/A   Clear
6:34 AM 60.8 °F - 59.0 °F 94% 30.09 in 7.0 mi Calm Calm - N/A   Clear
6:54 AM 62.6 °F - 59.0 °F 88% 30.10 in 10.0 mi Calm Calm - N/A   Mostly Cloudy
7:14 AM 62.6 °F - 59.0 °F 88% 30.10 in 10.0 mi ESE 3.5 mph - N/A   Overcast
7:34 AM 64.4 °F - 60.8 °F 88% 30.10 in 10.0 mi ESE 5.8 mph - N/A   Overcast
7:54 AM 64.4 °F - 60.8 °F 88% 30.10 in 10.0 mi ESE 8.1 mph - N/A   Overcast
8:14 AM 68.0 °F - 60.8 °F 78% 30.10 in 10.0 mi ESE 5.8 mph - N/A   Overcast
8:34 AM 68.0 °F - 60.8 °F 78% 30.10 in 10.0 mi SE 8.1 mph - N/A   Overcast
8:54 AM 69.8 °F - 60.8 °F 73% 30.10 in 10.0 mi SE 10.4 mph - N/A   Overcast
9:14 AM 71.6 °F - 60.8 °F 69% 30.10 in 10.0 mi SE 9.2 mph - N/A   Scattered Clouds
9:34 AM 69.8 °F - 60.8 °F 73% 30.10 in 10.0 mi SE 8.1 mph - N/A   Clear
9:53 AM 69.8 °F - 62.6 °F 78% 30.11 in 10.0 mi SE 5.8 mph - N/A   Clear
10:14 AM 71.6 °F - 62.6 °F 73% 30.10 in 10.0 mi SSE 5.8 mph - N/A   Scattered Clouds
10:34 AM 71.6 °F - 62.6 °F 73% 30.10 in 10.0 mi SSE 8.1 mph - N/A   Clear
10:53 AM 71.6 °F - 62.6 °F 73% 30.10 in 10.0 mi SE 10.4 mph - N/A   Clear
11:14 AM 73.4 °F - 62.6 °F 69% 30.10 in 10.0 mi SSE 9.2 mph - N/A   Clear
11:34 AM 73.4 °F - 62.6 °F 69% 30.10 in 10.0 mi SE 11.5 mph - N/A   Clear
12:14 PM 73.4 °F - 60.8 °F 65% 30.10 in 10.0 mi SE 10.4 mph - N/A   Scattered Clouds
12:34 PM 75.2 °F - 62.6 °F 65% 30.10 in 10.0 mi SE 10.4 mph - N/A   Mostly Cloudy
12:53 PM 75.2 °F - 60.8 °F 61% 30.09 in 10.0 mi SE 11.5 mph - N/A   Scattered Clouds
1:14 PM 77.0 °F - 62.6 °F 61% 30.09 in 10.0 mi ESE 6.9 mph - N/A   Clear
1:34 PM 77.0 °F - 60.8 °F 57% 30.09 in 10.0 mi SE 9.2 mph - N/A   Clear
1:54 PM 77.0 °F - 62.6 °F 61% 30.09 in 10.0 mi SE 8.1 mph - N/A   Clear
2:14 PM 77.0 °F - 60.8 °F 57% 30.09 in 10.0 mi SE 12.7 mph - N/A   Scattered Clouds
2:34 PM 78.8 °F - 60.8 °F 54% 30.09 in 10.0 mi SSE 13.8 mph 17.3 mph N/A   Scattered Clouds
2:53 PM 78.8 °F - 60.8 °F 54% 30.08 in 10.0 mi SSE 12.7 mph 17.3 mph N/A   Scattered Clouds
3:14 PM 78.8 °F - 60.8 °F 54% 30.07 in 10.0 mi SE 9.2 mph 19.6 mph N/A   Scattered Clouds
3:54 PM 80.6 °F 81.1 °F 59.0 °F 48% 30.07 in 10.0 mi SSE 12.7 mph 16.1 mph N/A   Scattered Clouds
4:14 PM 78.8 °F - 59.0 °F 51% 30.07 in 10.0 mi SE 13.8 mph 19.6 mph N/A   Scattered Clouds
4:54 PM 78.8 °F - 59.0 °F 51% 30.07 in 10.0 mi SE 12.7 mph - N/A   Scattered Clouds
5:14 PM 78.8 °F - 59.0 °F 51% 30.07 in 10.0 mi SSE 10.4 mph 17.3 mph N/A   Scattered Clouds
5:34 PM 78.8 °F - 59.0 °F 51% 30.07 in 10.0 mi SSE 12.7 mph 18.4 mph N/A   Scattered Clouds
5:54 PM 77.0 °F - 59.0 °F 54% 30.07 in 10.0 mi SSE 9.2 mph - N/A   Scattered Clouds
6:14 PM 77.0 °F - 59.0 °F 54% 30.06 in 10.0 mi SE 8.1 mph - N/A   Mostly Cloudy
6:34 PM 77.0 °F - 60.8 °F 57% 30.06 in 10.0 mi SE 6.9 mph - N/A   Overcast
6:53 PM 77.0 °F - 60.8 °F 57% 30.06 in 10.0 mi SE 9.2 mph - N/A   Overcast
7:13 PM 75.2 °F - 60.8 °F 61% 30.07 in 10.0 mi SSE 8.1 mph - N/A   Overcast
7:34 PM 75.2 °F - 60.8 °F 61% 30.07 in 10.0 mi SSE 6.9 mph - N/A   Overcast
7:53 PM 75.2 °F - 60.8 °F 61% 30.06 in 10.0 mi SE 4.6 mph - N/A   Mostly Cloudy
8:14 PM 73.4 °F - 62.6 °F 69% 30.05 in 10.0 mi SE 6.9 mph - N/A   Scattered Clouds
8:53 PM 71.6 °F - 62.6 °F 73% 30.05 in 10.0 mi SE 5.8 mph - N/A   Clear
9:14 PM 69.8 °F - 62.6 °F 78% 30.05 in 10.0 mi SE 4.6 mph - N/A   Scattered Clouds
9:34 PM 69.8 °F - 62.6 °F 78% 30.05 in 10.0 mi ESE 5.8 mph - N/A Thunderstorm Mostly Cloudy
10:34 PM 69.8 °F - 62.6 °F 78% 30.07 in 10.0 mi SSE 6.9 mph - N/A   Mostly Cloudy
10:53 PM 69.8 °F - 62.6 °F 78% 30.06 in 10.0 mi SE 6.9 mph - N/A   Scattered Clouds
11:14 PM 68.0 °F - 62.6 °F 83% 30.06 in 10.0 mi SE 5.8 mph - N/A   Clear
11:34 PM 68.0 °F - 62.6 °F 83% 30.07 in 10.0 mi South 4.6 mph - N/A   Clear
11:53 PM 68.0 °F - 62.6 °F 83% 30.05 in 10.0 mi SSE 4.6 mph - N/A   Clear